Regional Weather Roundup
Issued by NWS Little Rock, AR

Home | Current Version | Previous Version | Text Only | Print | Product List | Glossary Off
Versions: 1 2 3 4 5 6 7 8 9 10 11 12 13 14 15 16 17 18 19 20 21 22 23 24 25 26 27 28 29 30 31 32 33 34 35 36 37 38 39 40 41 42 43 44 45 46 47 48 49 50

673
ASUS44 KLZK 230805
RWRLZK

WEATHER ROUNDUP FOR ARKANSAS
NATIONAL WEATHER SERVICE LITTLE ROCK AR
200 AM CST MON JAN 23 2017

NOTE: "FAIR" INDICATES FEW OR NO CLOUDS BELOW 12,000 FEET WITH NO
SIGNIFICANT WEATHER AND/OR OBSTRUCTIONS TO VISIBILITY.

ARZ001-003-010-029-230900-
NORTHWEST ARKANSAS

CITY           SKY/WX    TMP DP  RH WIND       PRES   REMARKS
FAYETTEVILLE   CLOUDY    37  34  89 N8        29.90R
FORT SMITH     CLOUDY    40  32  73 NW10      29.92R
HARRISON       CLOUDY    37  35  92 NW13G22   29.83R
BENTONVILLE    CLOUDY   N/A N/A N/A NW9       29.90R
ROGERS         CLOUDY    37  33  85 NW9       29.90S
SILOAM SPGS    CLOUDY    37  32  81 N10       29.92R
HIGHFILL       CLOUDY    38  34  85 NW10      29.90R
$$

ARZ004-005-016-230900-
NORTH CENTRAL ARKANSAS

CITY           SKY/WX    TMP DP  RH WIND       PRES   REMARKS
BATESVILLE     CLEAR     41  34  75 NW14G22   29.75R
FLIPPIN        CLOUDY    39  34  81 NW8       29.79F
MTN HOME       CLOUDY    39  36  89 N6        29.79S
$$

ARZ040-041-230900-
WEST CENTRAL ARKANSAS

CITY           SKY/WX    TMP DP  RH WIND       PRES   REMARKS
MENA           CLEAR     41  37  87 NW9       29.86R
MOUNT IDA      CLEAR     43  35  73 VRB7G17   29.79R
$$

ARZ009-017-025-026-028-230900-
NORTHEAST ARKANSAS

CITY           SKY/WX    TMP DP  RH WIND       PRES   REMARKS
CORNING        FAIR      45  39  81 NW15G22   29.69R
JONESBORO      PTCLDY    45  38  76 NW21G29   29.66R
NEWPORT        CLEAR     42  36  79 NW25      29.71R
WALNUT RIDGE   CLEAR     43  34  70 NW21G26   29.70R
BLYTHEVILLE    CLOUDY    48  42  80 N21G28    29.62R
$$

ARZ022-023-033-042-044-230900-
CENTRAL ARKANSAS

CITY           SKY/WX    TMP DP  RH WIND       PRES   REMARKS
LITTLE ROCK    CLOUDY    48  43  82 NW18G25   29.74R
N LITTLE ROCK    N/A     47  41  80 N12G23    29.75R
JACKSONVILLE   CLOUDY    48  42  78 NW17G23   29.73R
SEARCY         CLEAR     45  38  76 NW10G20   29.75R
HOT SPRINGS    MOCLDY    48  38  68 NW7G20    29.78R
RUSSELLVILLE   CLOUDY    46  36  68 N13       29.81R
CLINTON        CLOUDY    43  36  75 NW12G22   29.78F
$$

ARZ036-230900-
EAST ARKANSAS

CITY           SKY/WX    TMP DP  RH WIND       PRES   REMARKS
WEST MEMPHIS   MOCLDY    47  42  83 N12G23    29.63R
$$

ARZ050-053-066-070-073-230900-
SOUTHWEST ARKANSAS

CITY           SKY/WX    TMP DP  RH WIND       PRES   REMARKS
ARKADELPHIA    FAIR      48  39  71 NW7       29.79R
CAMDEN         PTCLDY    50  36  57 NW6       29.78R
TEXARKANA      CLEAR     46  38  73 NW8       29.82R
EL DORADO        N/A    N/A N/A N/A MISG      29.78R
DE QUEEN       CLEAR     45  35  68 N6        29.82S
$$

ARZ056-057-069-230900-
SOUTHEAST ARKANSAS

CITY           SKY/WX    TMP DP  RH WIND       PRES   REMARKS
PINE BLUFF     CLEAR     49  43  80 NW14      29.72R
STUTTGART      CLEAR     48  36  61 NW20      29.71R
MONTICELLO     PTCLDY    51  44  77 NW10G21   29.71R

$$






USA.gov is the U.S. government's official web portal to all federal, state and local government web resources and services.